Regional Weather Roundup
Issued by NWS Newport/Morehead, NC

Current Version | Previous Version | Graphics & Text | Print | Product List | Glossary Off
Versions: 1 2 3 4 5 6 7 8 9 10 11 12 13 14 15 16 17 18 19 20 21 22 23 24 25 26 27 28 29 30 31 32 33 34 35 36 37 38 39 40 41 42 43 44 45 46 47 48 49 50

000
ASUS42 KMHX 161410
RWRMHX
WEATHER ROUNDUP FOR EASTERN NORTH CAROLINA
NATIONAL WEATHER SERVICE NEWPORT/MOREHEAD CITY NC
1000 AM EDT TUE SEP 16 2014

NOTE: "FAIR" INDICATES FEW OR NO CLOUDS BELOW 12,000 FEET
WITH NO SIGNIFICANT WEATHER AND/OR OBSTRUCTIONS TO VISIBILITY

NCZ015>017-031-032-045>047-102-103-161500-
NORTH COAST

CITY           SKY/WX    TMP DP  RH WIND       PRES   REMARKS
EDENTON        CLOUDY    74  69  83 W6        30.04S
ELIZABETH CITY PTSUNNY   73  68  84 SW6       30.04S
KITTY HAWK     MOSUNNY   75  67  76 W3        30.02F
MANTEO         MOSUNNY   74  67  77 W5        30.04F

$$

NCZ045>047-081-094-103-104-161500-
CENTRAL COAST

CITY           SKY/WX    TMP DP  RH WIND       PRES   REMARKS
FRISCO         MOSUNNY   76  69  79 NW5       30.04F
SWANQUARTER      N/A     77 N/A N/A W3        30.00S

$$

NCZ095-097-098-100-101-161500-
SOUTHERN COAST

CITY           SKY/WX    TMP DP  RH WIND       PRES   REMARKS
BEAUFORT       CLOUDY    76  69  79 NE3       30.06R
CEDAR ISLAND     N/A     79 N/A N/A NW3       30.09S
JACKSONVILLE   CLOUDY    73  70  90 CALM      30.05S
NEWPORT        NOT AVBL
PINEY ISLAND   PTSUNNY   78  68  71 W8        30.05S
WILMINGTON     CLOUDY    76  72  87 NW8       30.05S


$$

NCZ011>013-027>030-043-044-078>080-089-090>093-098-161500-
COASTAL PLAIN

CITY           SKY/WX    TMP DP  RH WIND       PRES   REMARKS
AHOSKIE        PTSUNNY   71  66  83 CALM      30.05S
CLINTON        CLOUDY    73  72  96 W3        30.06S FOG
ELIZABETHTOWN  CLOUDY    73  71  92 W5        30.06S
GOLDSBORO      CLOUDY    72  72 100 N5        30.04S
GREENVILLE     CLOUDY    72  70  94 NW6       30.07S FOG
HAVELOCK       CLOUDY    77  69  76 N5        30.06S
KENANSVILLE    CLOUDY    74  70  86 NW3       30.06S
KINSTON        CLOUDY    75  70  83 NW6       30.06S
NEW BERN       PTSUNNY   78  69  73 NW3       30.06S
RICHLANDS      CLOUDY    73  68  83 CALM      30.05S
ROANOKE RAPIDS NOT AVBL
ROCKY MOUNT    MOSUNNY   75  68  78 W6        30.05S
WASHINGTON     MOSUNNY   74  68  83 CALM      30.05F
WHITEVILLE     CLOUDY    74  71  89 CALM      30.06R

$$

AMZ130-135-150-152-154-156-158-170-250-252-270-ANZ085-086-088-633-658-670-161500-
MARINE OBSERVATIONS

STATION/POSITION TIME  TEMP    WIND        PRES    WAVE   SWELL
                       AIR SEA DIR/SP/G            HT/PER HT/PER
                 (UTC) (F)     (DEG/KT/KT) (MB)    (FT/S) (FT/S)
CHESAPEAKE LIGHT 1300   71     250/ 16/ 17 1017.2
BUOY 44014       1400   74 79  260/ 12/ 16 1016.4    2/ 7   2/ 7
DUCK             1300   74     250/  8/ 10   N/A
2E DUCK          1400                        N/A     2/13
OREGON INLET     1300   73     240/  5/  6   N/A
BUOY 44095       1400      76                N/A     2/13   2/13
20E OREGON INLET NOT AVBL
HATTERAS CG      1300   76     270/  4/  5   N/A
DIAMOND BUOY     1400   76     310/  6/  8 1017.3    2/ 8   2/ 8
CAPE LOOKOUT     1300   76      60/  6/  7 1017.3
BEAUFORT LAB     1300   74      50/  4/  4   N/A
30 SE NEW RIVER  1300   73 81  160/ 12/ 16 1017.4
5 SE WRIGHTSVILL 1300   73 81  330/  8/ 10   N/A
BUOY 41002       1256   81 83  300/  6/  8 1017.9    3/13   3/13
BUOY 41004       1400   81 83  310/  2/  4 1017.2    2/12   2/12

$$


USA.gov is the U.S. government's official web portal to all federal, state and local government web resources and services.